Regional Weather Roundup
Issued by NWS

Home | Current Version | Previous Version | Graphics & Text | Print | Product List | Glossary On
Versions: 1 2 3 4 5 6 7 8 9 10 11 12 13 14 15 16 17 18 19 20 21 22 23 24 25 26 27 28 29 30 31 32 33 34 35 36 37 38 39 40 41 42 43 44 45 46 47 48 49 50
000
ASUS45 KBOU 270607
RWRCO

WEATHER ROUNDUP FOR COLORADO
NATIONAL WEATHER SERVICE DENVER/BOULDER CO
1200 AM MDT TUE JUN 27 2017

NOTE: "FAIR" INDICATES FEW OR NO CLOUDS BELOW 12000 FEET WITH NO
SIGNIFICANT WEATHER AND/OR OBSTRUCTIONS TO VISIBILITY.

COZ001>005-013-030-031-270700-
...NORTHWEST COLORADO...

CITY           SKY/WX    TMP DP  RH WIND       PRES   REMARKS
CRAIG          FAIR      64  35  34 VRB3      30.10S
HAYDEN         FAIR      61  34  36 E5        30.14R
MEEKER         FAIR      63  37  38 NE6       30.12F
RABBIT EARS PA FAIR      57  27  30 SW5       30.46F
STEAMBOAT SPGS FAIR      64  32  29 SE6       30.15F
WALDEN         FAIR      50  32  50 W8        30.28R
$$

COZ006>008-011-270700-
...WEST CENTRAL VALLEYS...

CITY           SKY/WX    TMP DP  RH WIND       PRES   REMARKS
GRAND JUNCTION FAIR      76  28  17 SE6       29.96S
MONTROSE       FAIR      72  33  24 E10       30.09R
EAGLE          FAIR      60  30  32 SE3       30.19R
RIFLE          FAIR      68  32  26 SE13      30.06S
DELTA          FAIR      72  21  14 NE7       30.03S
NUCLA          FAIR      73  30  20 E15       30.12F
$$

COZ017>023-064>068-270700-
...SOUTHWEST COLORADO...

CITY           SKY/WX    TMP DP  RH WIND       PRES   REMARKS
DURANGO        FAIR      60  37  42 N12       30.22S
CORTEZ         FAIR      64  39  39 VRB5      30.12S
PAGOSA SPRINGS FAIR      55  32  42 CALM      30.33R
TELLURIDE      FAIR      59  32  36 SE5       30.41S
WOLF CREEK PAS FAIR      50  27  40 SW9       30.67S
$$

COZ009-010-012-014-032>034-037-058>063-270700-
...CENTRAL COLORADO...

CITY           SKY/WX    TMP DP  RH WIND       PRES   REMARKS
ASPEN          FAIR      55  30  38 SW10      30.25F
BUENA VISTA    FAIR      59  37  43 CALM      30.34F
COPPER MTN     FAIR      54  37  54 S15       30.59F
BERTHOUD PASS  FAIR      43  30  61 S13       30.62F
COTTONWOOD PAS FAIR      59  34  38 W5        30.47F
GUNNISON       FAIR      61  34  36 N9        30.27S
KREMMLING      NOT AVBL
LEADVILLE      FAIR      47  35  63 CALM      30.44F
MONARCH PASS   FAIR      45  32  61 E7        30.72S
SALIDA         FAIR      59  39  47 SW8       30.38F
SUNLIGHT       FAIR      55  18  22 CALM      30.52S
WILKERSON PASS FAIR      48  32  53 SW9       30.58F
$$

COZ069>075-270700-
...SAN LUIS VALLEY/SANGRE DE CRISTO MOUNTAINS...

CITY           SKY/WX    TMP DP  RH WIND       PRES   REMARKS
ALAMOSA        FAIR      51  43  74 SE5       30.30S
DEL NORTE      FAIR      51  41  70 N6        30.34S
LA VETA PASS   FAIR      48  34  57 SE16      30.62S
SAGUACHE       FAIR      54  32  43 CALM      30.34F
$$

COZ035-036-038>040-270700-
...NORTHERN COLORADO FRONT RANGE...

CITY           SKY/WX    TMP DP  RH WIND       PRES   REMARKS
DENVER INTL AP FAIR      67  45  45 S15       30.11F
DMNS CITY PARK   N/A     69  47  46 S7        30.10S
AURORA         PTCLDY    66  45  47 S13       30.13F
FRONT RANGE AP FAIR      70  45  40 SE18G24   30.13F
ERIE MUNI ARPT FAIR      64  50  60 SW3       30.09S
BOULDER MUN AP FAIR      66  46  48 NW8       30.10F
CENTENNIAL     FAIR      67  45  45 S15       30.14F
BROOMFIELD     FAIR      70  43  37 NW9       30.12F
FORT COLLINS   FAIR      66  54  65 E6        30.12S
LONGMONT       FAIR      68  53  59 N6        30.11F
$$

COZ041-046-047-076>085-087-088-270700-
...PIKES PEAK/PALMER DIVIDE AND SOUTHERN FOOTHILLS...

CITY           SKY/WX    TMP DP  RH WIND       PRES   REMARKS
COLO. SPRINGS  FAIR      62  46  55 E6        30.23R
A. F. ACADEMY  FAIR      56  47  71 CALM      30.23S
SCHRIEVER AFB  FAIR      58  46  64 CALM      30.23R
CHEYENNE MTN   FAIR      63  41  43 S14       30.21S
ELLICOTT       FAIR     N/A N/A N/A SE8       30.21F
FALCON           N/A     55  42  60 CALM      30.28S
FORT CARSON    FAIR      64  44  48 W5        30.20R
LIMON          FAIR      60  55  83 S5        30.18F
MONUMENT HILL  FAIR      55  41  58 S12       30.27S
CANON CITY     CLEAR     66  48  52 N9        30.16F
WALSENBURG     FAIR      66  45  45 S14G21    30.24F
TRINIDAD       FAIR      63  45  51 S15       30.26F
$$

COZ042>045-048>051-090-091-270700-
...NORTHEAST COLORADO...

CITY           SKY/WX    TMP DP  RH WIND       PRES   REMARKS
GREELEY ARPT   FAIR      65  56  72 E13       30.09
AKRON          FAIR      60  56  86 SE14      30.14F
BURLINGTON     FAIR      62  60  93 E10       30.14S
WRAY           FAIR      61  54  77 SE12      30.14S
YUMA           FAIR      59  50  72 SE8       30.13S
STERLING       FAIR      63  57  82 SE9       30.11S
HOLYOKE        NOT AVBL
FORT MORGAN    FAIR      64  54  70 SE9G17    30.12F
$$

COZ086-089-092>099-270700-
...SOUTHEAST COLORADO...

CITY           SKY/WX    TMP DP  RH WIND       PRES   REMARKS
PUEBLO         FAIR      63  47  55 W6        30.12F
LA JUNTA       FAIR      74  44  34 S9        30.07F
LAMAR          FAIR      70  54  56 S7        30.04F
SPRINGFIELD      N/A     69  54  58 S20       30.07F
$$



USA.gov is the U.S. government's official web portal to all federal, state and local government web resources and services.